Year,Month,Day,Hour,Minute,Value (Times are PST for temperature in C)
2006,09,16,00,00,10.20
2006,09,16,00,01,10.20
2006,09,16,00,02,10.20
2006,09,16,00,03,10.10
2006,09,16,00,04,10.10
2006,09,16,00,05,10.10
2006,09,16,00,06,10.00
2006,09,16,00,07,9.90
2006,09,16,00,08,9.90
2006,09,16,00,09,9.90
2006,09,16,00,10,9.90
2006,09,16,00,11,9.90
2006,09,16,00,12,9.80
2006,09,16,00,13,9.80
2006,09,16,00,14,9.80
2006,09,16,00,15,9.80
2006,09,16,00,16,9.80
2006,09,16,00,17,9.80
2006,09,16,00,18,9.70
2006,09,16,00,19,9.70
2006,09,16,00,20,9.70
2006,09,16,00,21,9.70
2006,09,16,00,22,9.70
2006,09,16,00,23,9.70
2006,09,16,00,24,9.70
2006,09,16,00,25,9.60
2006,09,16,00,26,9.60
2006,09,16,00,27,9.60
2006,09,16,00,28,9.60
2006,09,16,00,29,9.60
2006,09,16,00,30,9.60
2006,09,16,00,31,9.60
2006,09,16,00,32,9.60
2006,09,16,00,33,9.60
2006,09,16,00,34,9.60
2006,09,16,00,35,9.60
2006,09,16,00,36,9.60
2006,09,16,00,37,9.60
2006,09,16,00,38,9.60
2006,09,16,00,39,9.60
2006,09,16,00,40,9.60
2006,09,16,00,41,9.60
2006,09,16,00,42,9.60
2006,09,16,00,43,9.70
2006,09,16,00,44,9.70
2006,09,16,00,45,9.70
2006,09,16,00,46,9.70
2006,09,16,00,47,9.70
2006,09,16,00,48,9.80
2006,09,16,00,49,9.80
2006,09,16,00,50,9.90
2006,09,16,00,51,9.90
2006,09,16,00,52,9.90
2006,09,16,00,53,9.90
2006,09,16,00,54,9.90
2006,09,16,00,55,10.10
2006,09,16,00,56,10.10
2006,09,16,00,57,10.10
2006,09,16,00,58,10.20
2006,09,16,00,59,10.20
2006,09,16,01,00,10.20
2006,09,16,01,01,10.20
2006,09,16,01,02,10.20
2006,09,16,01,03,10.30
2006,09,16,01,04,10.30
2006,09,16,01,05,10.40
2006,09,16,01,06,10.40
2006,09,16,01,07,10.40
2006,09,16,01,08,10.40
2006,09,16,01,09,10.40
2006,09,16,01,10,10.40
2006,09,16,01,11,10.40
2006,09,16,01,12,10.40
2006,09,16,01,13,10.40
2006,09,16,01,14,10.40
2006,09,16,01,15,10.50
2006,09,16,01,16,10.60
2006,09,16,01,17,10.60
2006,09,16,01,18,10.60
2006,09,16,01,19,10.60
2006,09,16,01,20,10.60
2006,09,16,01,21,10.60
2006,09,16,01,22,10.60
2006,09,16,01,23,10.60
2006,09,16,01,24,10.60
2006,09,16,01,25,10.60
2006,09,16,01,26,10.60
2006,09,16,01,27,10.60
2006,09,16,01,28,10.50
2006,09,16,01,29,10.40
2006,09,16,01,30,10.40
2006,09,16,01,31,10.30
2006,09,16,01,32,10.20
2006,09,16,01,33,10.20
2006,09,16,01,34,10.10
2006,09,16,01,35,10.00
2006,09,16,01,36,9.90
2006,09,16,01,37,9.90
2006,09,16,01,38,9.80
2006,09,16,01,39,9.70
2006,09,16,01,40,9.70
2006,09,16,01,41,9.70
2006,09,16,01,42,9.60
2006,09,16,01,43,9.60
2006,09,16,01,44,9.50
2006,09,16,01,45,9.50
2006,09,16,01,46,9.40
2006,09,16,01,47,9.40
2006,09,16,01,48,9.40
2006,09,16,01,49,9.40
2006,09,16,01,50,9.30
2006,09,16,01,51,9.30
2006,09,16,01,52,9.30
2006,09,16,01,53,9.30
2006,09,16,01,54,9.30
2006,09,16,01,55,9.30
2006,09,16,01,56,9.30
2006,09,16,01,57,9.30
2006,09,16,01,58,9.30
2006,09,16,01,59,9.30
2006,09,16,02,00,9.30
2006,09,16,02,01,9.20
2006,09,16,02,02,9.20
2006,09,16,02,03,9.20
2006,09,16,02,04,9.20
2006,09,16,02,05,9.20
2006,09,16,02,06,9.20
2006,09,16,02,07,9.20
2006,09,16,02,08,9.20
2006,09,16,02,09,9.20
2006,09,16,02,10,9.20
2006,09,16,02,11,9.20
2006,09,16,02,12,9.20
2006,09,16,02,13,9.20
2006,09,16,02,14,9.20
2006,09,16,02,15,9.20
2006,09,16,02,16,9.20
2006,09,16,02,17,9.20
2006,09,16,02,18,9.20
2006,09,16,02,19,9.20
2006,09,16,02,20,9.20
2006,09,16,02,21,9.20
2006,09,16,02,22,9.20
2006,09,16,02,23,9.20
2006,09,16,02,24,9.20
2006,09,16,02,25,9.20
2006,09,16,02,26,9.20
2006,09,16,02,27,9.20
2006,09,16,02,28,9.20
2006,09,16,02,29,9.20
2006,09,16,02,30,9.20
2006,09,16,02,31,9.20
2006,09,16,02,32,9.20
2006,09,16,02,33,9.20
2006,09,16,02,34,9.20
2006,09,16,02,35,9.20
2006,09,16,02,36,9.20
2006,09,16,02,37,9.20
2006,09,16,02,38,9.20
2006,09,16,02,39,9.20
2006,09,16,02,40,9.20
2006,09,16,02,41,9.10
2006,09,16,02,42,9.10
2006,09,16,02,43,9.00
2006,09,16,02,44,9.00
2006,09,16,02,45,9.00
2006,09,16,02,46,9.00
2006,09,16,02,47,9.00
2006,09,16,02,48,9.00
2006,09,16,02,49,9.00
2006,09,16,02,50,9.00
2006,09,16,02,51,9.00
2006,09,16,02,52,9.00
2006,09,16,02,53,9.00
2006,09,16,02,54,9.00
2006,09,16,02,55,9.10
2006,09,16,02,56,9.10
2006,09,16,02,57,9.00
2006,09,16,02,58,9.00
2006,09,16,02,59,9.00
2006,09,16,03,00,9.00
2006,09,16,03,01,8.90
2006,09,16,03,02,8.90
2006,09,16,03,03,8.90
2006,09,16,03,04,8.90
2006,09,16,03,05,8.80
2006,09,16,03,06,8.80
2006,09,16,03,07,8.80
2006,09,16,03,08,8.80
2006,09,16,03,09,8.70
2006,09,16,03,10,8.70
2006,09,16,03,11,8.70
2006,09,16,03,12,8.70
2006,09,16,03,13,8.70
2006,09,16,03,14,8.60
2006,09,16,03,15,8.60
2006,09,16,03,16,8.60
2006,09,16,03,17,8.60
2006,09,16,03,18,8.60
2006,09,16,03,19,8.60
2006,09,16,03,20,8.60
2006,09,16,03,21,8.60
2006,09,16,03,22,8.60
2006,09,16,03,23,8.60
2006,09,16,03,24,8.60
2006,09,16,03,25,8.60
2006,09,16,03,26,8.70
2006,09,16,03,27,8.70
2006,09,16,03,28,8.70
2006,09,16,03,29,8.70
2006,09,16,03,30,8.70
2006,09,16,03,31,8.70
2006,09,16,03,32,8.70
2006,09,16,03,33,8.70
2006,09,16,03,34,8.70
2006,09,16,03,35,8.70
2006,09,16,03,36,8.70
2006,09,16,03,37,8.70
2006,09,16,03,38,8.70
2006,09,16,03,39,8.70
2006,09,16,03,40,8.70
2006,09,16,03,41,8.70
2006,09,16,03,42,8.70
2006,09,16,03,43,8.70
2006,09,16,03,44,8.70
2006,09,16,03,45,8.70
2006,09,16,03,46,8.80
2006,09,16,03,47,8.90
2006,09,16,03,48,8.80
2006,09,16,03,49,8.80
2006,09,16,03,50,8.80
2006,09,16,03,51,8.80
2006,09,16,03,52,8.80
2006,09,16,03,53,8.80
2006,09,16,03,54,8.80
2006,09,16,03,55,8.70
2006,09,16,03,56,8.70
2006,09,16,03,57,8.70
2006,09,16,03,58,8.70
2006,09,16,03,59,8.70
2006,09,16,04,00,8.70
2006,09,16,04,01,8.70
2006,09,16,04,02,8.70
2006,09,16,04,03,8.70
2006,09,16,04,04,8.60
2006,09,16,04,05,8.60
2006,09,16,04,06,8.60
2006,09,16,04,07,8.60
2006,09,16,04,08,8.60
2006,09,16,04,09,8.50
2006,09,16,04,10,8.50
2006,09,16,04,11,8.50
2006,09,16,04,12,8.50
2006,09,16,04,13,8.50
2006,09,16,04,14,8.50
2006,09,16,04,15,8.50
2006,09,16,04,16,8.50
2006,09,16,04,17,8.50
2006,09,16,04,18,8.50
2006,09,16,04,19,8.50
2006,09,16,04,20,8.50
2006,09,16,04,21,8.60
2006,09,16,04,22,8.70
2006,09,16,04,23,8.70
2006,09,16,04,24,8.70
2006,09,16,04,25,8.70
2006,09,16,04,26,8.70
2006,09,16,04,27,8.70
2006,09,16,04,28,8.70
2006,09,16,04,29,8.70
2006,09,16,04,30,8.80
2006,09,16,04,31,8.90
2006,09,16,04,32,8.90
2006,09,16,04,33,9.00
2006,09,16,04,34,9.00
2006,09,16,04,35,9.00
2006,09,16,04,36,9.00
2006,09,16,04,37,9.00
2006,09,16,04,38,9.00
2006,09,16,04,39,8.90
2006,09,16,04,40,8.90
2006,09,16,04,41,8.90
2006,09,16,04,42,8.90
2006,09,16,04,43,8.90
2006,09,16,04,44,8.90
2006,09,16,04,45,8.80
2006,09,16,04,46,8.80
2006,09,16,04,47,8.90
2006,09,16,04,48,8.90
2006,09,16,04,49,8.90
2006,09,16,04,50,8.90
2006,09,16,04,51,8.90
2006,09,16,04,52,8.90
2006,09,16,04,53,8.80
2006,09,16,04,54,8.80
2006,09,16,04,55,8.80
2006,09,16,04,56,8.80
2006,09,16,04,57,8.70
2006,09,16,04,58,8.70
2006,09,16,04,59,8.70
2006,09,16,05,00,8.70
2006,09,16,05,01,8.70
2006,09,16,05,02,8.60
2006,09,16,05,03,8.60
2006,09,16,05,04,8.60
2006,09,16,05,05,8.60
2006,09,16,05,06,8.60
2006,09,16,05,07,8.60
2006,09,16,05,08,8.60
2006,09,16,05,09,8.60
2006,09,16,05,10,8.70
2006,09,16,05,11,8.70
2006,09,16,05,12,8.70
2006,09,16,05,13,8.70
2006,09,16,05,14,8.70
2006,09,16,05,15,8.70
2006,09,16,05,16,8.80
2006,09,16,05,17,8.80
2006,09,16,05,18,8.80
2006,09,16,05,19,8.90
2006,09,16,05,20,8.90
2006,09,16,05,21,8.90
2006,09,16,05,22,8.90
2006,09,16,05,23,9.00
2006,09,16,05,24,9.00
2006,09,16,05,25,9.00
2006,09,16,05,26,9.10
2006,09,16,05,27,9.10
2006,09,16,05,28,9.10
2006,09,16,05,29,9.20
2006,09,16,05,30,9.20
2006,09,16,05,31,9.20
2006,09,16,05,32,9.20
2006,09,16,05,33,9.20
2006,09,16,05,34,9.20
2006,09,16,05,35,9.20
2006,09,16,05,36,9.20
2006,09,16,05,37,9.20
2006,09,16,05,38,9.20
2006,09,16,05,39,9.20
2006,09,16,05,40,9.20
2006,09,16,05,41,9.20
2006,09,16,05,42,9.20
2006,09,16,05,43,9.20
2006,09,16,05,44,9.20
2006,09,16,05,45,9.20
2006,09,16,05,46,9.20
2006,09,16,05,47,9.20
2006,09,16,05,48,9.20
2006,09,16,05,49,9.20
2006,09,16,05,50,9.20
2006,09,16,05,51,9.20
2006,09,16,05,52,9.20
2006,09,16,05,53,9.20
2006,09,16,05,54,9.10
2006,09,16,05,55,9.10
2006,09,16,05,56,9.10
2006,09,16,05,57,9.10
2006,09,16,05,58,9.10
2006,09,16,05,59,9.10
2006,09,16,06,00,9.00
2006,09,16,06,01,9.00
2006,09,16,06,02,9.00
2006,09,16,06,03,9.00
2006,09,16,06,04,8.90
2006,09,16,06,05,8.90
2006,09,16,06,06,8.90
2006,09,16,06,07,8.90
2006,09,16,06,08,8.80
2006,09,16,06,09,8.80
2006,09,16,06,10,8.80
2006,09,16,06,11,8.70
2006,09,16,06,12,8.70
2006,09,16,06,13,8.70
2006,09,16,06,14,8.70
2006,09,16,06,15,8.70
2006,09,16,06,16,8.70
2006,09,16,06,17,8.70
2006,09,16,06,18,8.70
2006,09,16,06,19,8.70
2006,09,16,06,20,8.70
2006,09,16,06,21,8.70
2006,09,16,06,22,8.70
2006,09,16,06,23,8.70
2006,09,16,06,24,8.70
2006,09,16,06,25,8.70
2006,09,16,06,26,8.70
2006,09,16,06,27,8.70
2006,09,16,06,28,8.70
2006,09,16,06,29,8.70
2006,09,16,06,30,8.70
2006,09,16,06,31,8.70
2006,09,16,06,32,8.70
2006,09,16,06,33,8.70
2006,09,16,06,34,8.70
2006,09,16,06,35,8.70
2006,09,16,06,36,8.70
2006,09,16,06,37,8.70
2006,09,16,06,38,8.70
2006,09,16,06,39,8.70
2006,09,16,06,40,8.70
2006,09,16,06,41,8.60
2006,09,16,06,42,8.60
2006,09,16,06,43,8.60
2006,09,16,06,44,8.60
2006,09,16,06,45,8.60
2006,09,16,06,46,8.60
2006,09,16,06,47,8.60
2006,09,16,06,48,8.60
2006,09,16,06,49,8.60
2006,09,16,06,50,8.60
2006,09,16,06,51,8.60
2006,09,16,06,52,8.70
2006,09,16,06,53,8.70
2006,09,16,06,54,8.70
2006,09,16,06,55,8.60
2006,09,16,06,56,8.60
2006,09,16,06,57,8.60
2006,09,16,06,58,8.60
2006,09,16,06,59,8.60
2006,09,16,07,00,8.60
2006,09,16,07,01,8.60
2006,09,16,07,02,8.60
2006,09,16,07,03,8.70
2006,09,16,07,04,8.60
2006,09,16,07,05,8.60
2006,09,16,07,06,8.60
2006,09,16,07,07,8.60
2006,09,16,07,08,8.60
2006,09,16,07,09,8.60
2006,09,16,07,10,8.70
2006,09,16,07,11,8.70
2006,09,16,07,12,8.70
2006,09,16,07,13,8.70
2006,09,16,07,14,8.60
2006,09,16,07,15,8.60
2006,09,16,07,16,8.60
2006,09,16,07,17,8.60
2006,09,16,07,18,8.60
2006,09,16,07,19,8.60
2006,09,16,07,20,8.50
2006,09,16,07,21,8.50
2006,09,16,07,22,8.50
2006,09,16,07,23,8.50
2006,09,16,07,24,8.40
2006,09,16,07,25,8.40
2006,09,16,07,26,8.30
2006,09,16,07,27,8.30
2006,09,16,07,28,8.30
2006,09,16,07,29,8.30
2006,09,16,07,30,8.30
2006,09,16,07,31,8.40
2006,09,16,07,32,8.40
2006,09,16,07,33,8.40
2006,09,16,07,34,8.40
2006,09,16,07,35,8.40
2006,09,16,07,36,8.40
2006,09,16,07,37,8.40
2006,09,16,07,38,8.40
2006,09,16,07,39,8.50
2006,09,16,07,40,8.50
2006,09,16,07,41,8.50
2006,09,16,07,42,8.50
2006,09,16,07,43,8.60
2006,09,16,07,44,8.60
2006,09,16,07,45,8.60
2006,09,16,07,46,8.70
2006,09,16,07,47,8.70
2006,09,16,07,48,8.70
2006,09,16,07,49,8.70
2006,09,16,07,50,8.80
2006,09,16,07,51,8.80
2006,09,16,07,52,8.90
2006,09,16,07,53,8.90
2006,09,16,07,54,9.00
2006,09,16,07,55,9.10
2006,09,16,07,56,9.20
2006,09,16,07,57,9.20
2006,09,16,07,58,9.30
2006,09,16,07,59,9.30
2006,09,16,08,00,9.40
2006,09,16,08,01,9.40
2006,09,16,08,02,9.50
2006,09,16,08,03,9.60
2006,09,16,08,04,9.70
2006,09,16,08,05,9.70
2006,09,16,08,06,9.80
2006,09,16,08,07,9.90
2006,09,16,08,08,9.90
2006,09,16,08,09,10.00
2006,09,16,08,10,10.10
2006,09,16,08,11,10.20
2006,09,16,08,12,10.20
2006,09,16,08,13,10.30
2006,09,16,08,14,10.40
2006,09,16,08,15,10.40
2006,09,16,08,16,10.50
2006,09,16,08,17,10.60
2006,09,16,08,18,10.80
2006,09,16,08,19,10.90
2006,09,16,08,20,11.00
2006,09,16,08,21,11.20
2006,09,16,08,22,11.30
2006,09,16,08,23,11.40
2006,09,16,08,24,11.50
2006,09,16,08,25,11.60
2006,09,16,08,26,11.60
2006,09,16,08,27,11.60
2006,09,16,08,28,11.70
2006,09,16,08,29,11.70
2006,09,16,08,30,11.70
2006,09,16,08,31,11.70
2006,09,16,08,32,11.70
2006,09,16,08,33,11.70
2006,09,16,08,34,11.60
2006,09,16,08,35,11.60
2006,09,16,08,36,11.60
2006,09,16,08,37,11.60
2006,09,16,08,38,11.60
2006,09,16,08,39,11.60
2006,09,16,08,40,11.70
2006,09,16,08,41,11.70
2006,09,16,08,42,11.70
2006,09,16,08,43,11.70
2006,09,16,08,44,11.70
2006,09,16,08,45,11.70
2006,09,16,08,46,11.80
2006,09,16,08,47,11.80
2006,09,16,08,48,11.90
2006,09,16,08,49,11.90
2006,09,16,08,50,12.00
2006,09,16,08,51,12.10
2006,09,16,08,52,12.20
2006,09,16,08,53,12.40
2006,09,16,08,54,12.50
2006,09,16,08,55,12.50
2006,09,16,08,56,12.60
2006,09,16,08,57,12.70
2006,09,16,08,58,12.80
2006,09,16,08,59,12.80
2006,09,16,09,00,12.80
2006,09,16,09,01,12.80
2006,09,16,09,02,12.90
2006,09,16,09,03,12.90
2006,09,16,09,04,13.00
2006,09,16,09,05,13.00
2006,09,16,09,06,13.10
2006,09,16,09,07,13.10
2006,09,16,09,08,13.10
2006,09,16,09,09,13.10
2006,09,16,09,10,13.10
2006,09,16,09,11,13.10
2006,09,16,09,12,13.10
2006,09,16,09,13,13.20
2006,09,16,09,14,13.20
2006,09,16,09,15,13.30
2006,09,16,09,16,13.30
2006,09,16,09,17,13.40
2006,09,16,09,18,13.40
2006,09,16,09,19,13.40
2006,09,16,09,20,13.40
2006,09,16,09,21,13.30
2006,09,16,09,22,13.30
2006,09,16,09,23,13.20
2006,09,16,09,24,13.10
2006,09,16,09,25,13.10
2006,09,16,09,26,13.00
2006,09,16,09,27,13.00
2006,09,16,09,28,12.90
2006,09,16,09,29,12.90
2006,09,16,09,30,12.90
2006,09,16,09,31,12.80
2006,09,16,09,32,12.80
2006,09,16,09,33,12.80
2006,09,16,09,34,12.90
2006,09,16,09,35,12.80
2006,09,16,09,36,12.80
2006,09,16,09,37,12.80
2006,09,16,09,38,12.90
2006,09,16,09,39,12.90
2006,09,16,09,40,13.00
2006,09,16,09,41,13.00
2006,09,16,09,42,13.00
2006,09,16,09,43,13.00
2006,09,16,09,44,13.00
2006,09,16,09,45,13.10
2006,09,16,09,46,13.10
2006,09,16,09,47,13.10
2006,09,16,09,48,13.10
2006,09,16,09,49,13.20
2006,09,16,09,50,13.20
2006,09,16,09,51,13.10
2006,09,16,09,52,13.10
2006,09,16,09,53,13.00
2006,09,16,09,54,12.90
2006,09,16,09,55,12.80
2006,09,16,09,56,12.80
2006,09,16,09,57,12.80
2006,09,16,09,58,12.80
2006,09,16,09,59,12.80
2006,09,16,10,00,12.90
2006,09,16,10,01,12.90
2006,09,16,10,02,13.00
2006,09,16,10,03,13.00
2006,09,16,10,04,13.00
2006,09,16,10,05,13.00
2006,09,16,10,06,13.00
2006,09,16,10,07,13.00
2006,09,16,10,08,13.00
2006,09,16,10,09,12.90
2006,09,16,10,10,12.90
2006,09,16,10,11,12.90
2006,09,16,10,12,12.90
2006,09,16,10,13,13.00
2006,09,16,10,14,13.00
2006,09,16,10,15,13.00
2006,09,16,10,16,13.20
2006,09,16,10,17,13.30
2006,09,16,10,18,13.40
2006,09,16,10,19,13.50
2006,09,16,10,20,13.60
2006,09,16,10,21,13.60
2006,09,16,10,22,13.60
2006,09,16,10,23,13.60
2006,09,16,10,24,13.60
2006,09,16,10,25,13.60
2006,09,16,10,26,13.60
2006,09,16,10,27,13.70
2006,09,16,10,28,13.70
2006,09,16,10,29,13.80
2006,09,16,10,30,13.80
2006,09,16,10,31,13.80
2006,09,16,10,32,13.80
2006,09,16,10,33,13.80
2006,09,16,10,34,13.80
2006,09,16,10,35,13.70
2006,09,16,10,36,13.70
2006,09,16,10,37,13.60
2006,09,16,10,38,13.50
2006,09,16,10,39,13.40
2006,09,16,10,40,13.30
2006,09,16,10,41,13.30
2006,09,16,10,42,13.40
2006,09,16,10,43,13.40
2006,09,16,10,44,13.50
2006,09,16,10,45,13.60
2006,09,16,10,46,13.70
2006,09,16,10,47,13.80
2006,09,16,10,48,13.90
2006,09,16,10,49,14.00
2006,09,16,10,50,13.90
2006,09,16,10,51,13.90
2006,09,16,10,52,13.80
2006,09,16,10,53,13.70
2006,09,16,10,54,13.70
2006,09,16,10,55,13.70
2006,09,16,10,56,13.70
2006,09,16,10,57,13.70
2006,09,16,10,58,13.70
2006,09,16,10,59,13.70
2006,09,16,11,00,13.60
2006,09,16,11,01,13.60
2006,09,16,11,02,13.60
2006,09,16,11,03,13.60
2006,09,16,11,04,13.70
2006,09,16,11,05,13.70
2006,09,16,11,06,13.70
2006,09,16,11,07,13.80
2006,09,16,11,08,13.90
2006,09,16,11,09,14.10
2006,09,16,11,10,14.20
2006,09,16,11,11,14.20
2006,09,16,11,12,14.20
2006,09,16,11,13,14.20
2006,09,16,11,14,14.20
2006,09,16,11,15,14.30
2006,09,16,11,16,14.20
2006,09,16,11,17,14.20
2006,09,16,11,18,14.20
2006,09,16,11,19,14.40
2006,09,16,11,20,14.40
2006,09,16,11,21,14.40
2006,09,16,11,22,14.40
2006,09,16,11,23,14.30
2006,09,16,11,24,14.40
2006,09,16,11,25,14.50
2006,09,16,11,26,14.60
2006,09,16,11,27,14.70
2006,09,16,11,28,14.60
2006,09,16,11,29,14.50
2006,09,16,11,30,14.40
2006,09,16,11,31,14.30
2006,09,16,11,32,14.20
2006,09,16,11,33,14.30
2006,09,16,11,34,14.30
2006,09,16,11,35,14.30
2006,09,16,11,36,14.20
2006,09,16,11,37,14.10
2006,09,16,11,38,14.00
2006,09,16,11,39,13.80
2006,09,16,11,40,13.60
2006,09,16,11,41,13.50
2006,09,16,11,42,13.50
2006,09,16,11,43,13.50
2006,09,16,11,44,13.50
2006,09,16,11,45,13.50
2006,09,16,11,46,13.60
2006,09,16,11,47,13.60
2006,09,16,11,48,13.60
2006,09,16,11,49,13.60
2006,09,16,11,50,13.90
2006,09,16,11,51,14.00
2006,09,16,11,52,14.10
2006,09,16,11,53,14.10
2006,09,16,11,54,14.20
2006,09,16,11,55,14.40
2006,09,16,11,56,14.50
2006,09,16,11,57,14.40
2006,09,16,11,58,14.40
2006,09,16,11,59,14.40
2006,09,16,12,00,14.20
2006,09,16,12,01,14.00
2006,09,16,12,02,14.00
2006,09,16,12,03,14.00
2006,09,16,12,04,14.00
2006,09,16,12,05,14.10
2006,09,16,12,06,14.00
2006,09,16,12,07,13.90
2006,09,16,12,08,13.80
2006,09,16,12,09,14.00
2006,09,16,12,10,14.10
2006,09,16,12,11,14.10
2006,09,16,12,12,14.20
2006,09,16,12,13,14.30
2006,09,16,12,14,14.30
2006,09,16,12,15,14.20
2006,09,16,12,16,14.10
2006,09,16,12,17,14.10
2006,09,16,12,18,14.10
2006,09,16,12,19,14.10
2006,09,16,12,20,14.10
2006,09,16,12,21,14.20
2006,09,16,12,22,14.20
2006,09,16,12,23,14.20
2006,09,16,12,24,14.20
2006,09,16,12,25,14.20
2006,09,16,12,26,14.30
2006,09,16,12,27,14.40
2006,09,16,12,28,14.40
2006,09,16,12,29,14.40
2006,09,16,12,30,14.40
2006,09,16,12,31,14.40
2006,09,16,12,32,14.40
2006,09,16,12,33,14.40
2006,09,16,12,34,14.40
2006,09,16,12,35,14.50
2006,09,16,12,36,14.50
2006,09,16,12,37,14.60
2006,09,16,12,38,14.80
2006,09,16,12,39,14.80
2006,09,16,12,40,14.80
2006,09,16,12,41,14.80
2006,09,16,12,42,14.70
2006,09,16,12,43,14.70
2006,09,16,12,44,14.60
2006,09,16,12,45,14.50
2006,09,16,12,46,14.50
2006,09,16,12,47,14.60
2006,09,16,12,48,14.60
2006,09,16,12,49,14.50
2006,09,16,12,50,14.40
2006,09,16,12,51,14.30
2006,09,16,12,52,14.20
2006,09,16,12,53,14.30
2006,09,16,12,54,14.30
2006,09,16,12,55,14.30
2006,09,16,12,56,14.40
2006,09,16,12,57,14.40
2006,09,16,12,58,14.50
2006,09,16,12,59,14.50
2006,09,16,13,00,14.40
2006,09,16,13,01,14.30
2006,09,16,13,02,14.50
2006,09,16,13,03,14.50
2006,09,16,13,04,14.40
2006,09,16,13,05,14.30
2006,09,16,13,06,14.40
2006,09,16,13,07,14.40
2006,09,16,13,08,14.10
2006,09,16,13,09,14.00
2006,09,16,13,10,14.00
2006,09,16,13,11,14.00
2006,09,16,13,12,14.00
2006,09,16,13,13,14.10
2006,09,16,13,14,14.20
2006,09,16,13,15,14.20
2006,09,16,13,16,14.10
2006,09,16,13,17,14.10
2006,09,16,13,18,14.20
2006,09,16,13,19,14.20
2006,09,16,13,20,14.20
2006,09,16,13,21,14.20
2006,09,16,13,22,14.20
2006,09,16,13,23,14.30
2006,09,16,13,24,14.50
2006,09,16,13,25,14.50
2006,09,16,13,26,14.60
2006,09,16,13,27,14.70
2006,09,16,13,28,14.80
2006,09,16,13,29,14.80
2006,09,16,13,30,14.70
2006,09,16,13,31,14.60
2006,09,16,13,32,14.50
2006,09,16,13,33,14.50
2006,09,16,13,34,14.40
2006,09,16,13,35,14.50
2006,09,16,13,36,14.50
2006,09,16,13,37,14.50
2006,09,16,13,38,14.50
2006,09,16,13,39,14.50
2006,09,16,13,40,14.70
2006,09,16,13,41,14.80
2006,09,16,13,42,14.80
2006,09,16,13,43,14.90
2006,09,16,13,44,14.90
2006,09,16,13,45,14.80
2006,09,16,13,46,14.90
2006,09,16,13,47,14.90
2006,09,16,13,48,14.90
2006,09,16,13,49,14.90
2006,09,16,13,50,14.90
2006,09,16,13,51,14.90
2006,09,16,13,52,14.90
2006,09,16,13,53,14.90
2006,09,16,13,54,15.00
2006,09,16,13,55,15.10
2006,09,16,13,56,15.10
2006,09,16,13,57,15.20
2006,09,16,13,58,15.30
2006,09,16,13,59,15.30
2006,09,16,14,00,15.40
2006,09,16,14,01,15.40
2006,09,16,14,02,15.30
2006,09,16,14,03,15.30
2006,09,16,14,04,15.30
2006,09,16,14,05,15.20
2006,09,16,14,06,15.10
2006,09,16,14,07,15.10
2006,09,16,14,08,15.00
2006,09,16,14,09,14.90
2006,09,16,14,10,14.90
2006,09,16,14,11,15.00
2006,09,16,14,12,15.00
2006,09,16,14,13,15.00
2006,09,16,14,14,15.00
2006,09,16,14,15,15.00
2006,09,16,14,16,14.90
2006,09,16,14,17,14.80
2006,09,16,14,18,14.80
2006,09,16,14,19,14.90
2006,09,16,14,20,14.90
2006,09,16,14,21,14.90
2006,09,16,14,22,14.90
2006,09,16,14,23,15.00
2006,09,16,14,24,14.90
2006,09,16,14,25,14.90
2006,09,16,14,26,14.80
2006,09,16,14,27,14.90
2006,09,16,14,28,14.90
2006,09,16,14,29,14.80
2006,09,16,14,30,14.80
2006,09,16,14,31,14.80
2006,09,16,14,32,14.90
2006,09,16,14,33,14.90
2006,09,16,14,34,14.90
2006,09,16,14,35,14.90
2006,09,16,14,36,15.00
2006,09,16,14,37,15.10
2006,09,16,14,38,15.20
2006,09,16,14,39,15.20
2006,09,16,14,40,15.10
2006,09,16,14,41,15.10
2006,09,16,14,42,15.10
2006,09,16,14,43,15.00
2006,09,16,14,44,15.10
2006,09,16,14,45,15.10
2006,09,16,14,46,15.20
2006,09,16,14,47,15.20
2006,09,16,14,48,15.20
2006,09,16,14,49,15.20
2006,09,16,14,50,15.10
2006,09,16,14,51,15.00
2006,09,16,14,52,15.10
2006,09,16,14,53,15.10
2006,09,16,14,54,15.20
2006,09,16,14,55,15.30
2006,09,16,14,56,15.30
2006,09,16,14,57,15.30
2006,09,16,14,58,15.30
2006,09,16,14,59,15.30
2006,09,16,15,00,15.40
2006,09,16,15,01,15.40
2006,09,16,15,02,15.50
2006,09,16,15,03,15.40
2006,09,16,15,04,15.40
2006,09,16,15,05,15.40
2006,09,16,15,06,15.50
2006,09,16,15,07,15.50
2006,09,16,15,08,15.60
2006,09,16,15,09,15.70
2006,09,16,15,10,15.70
2006,09,16,15,11,15.80
2006,09,16,15,12,15.80
2006,09,16,15,13,15.80
2006,09,16,15,14,15.80
2006,09,16,15,15,15.80
2006,09,16,15,16,15.60
2006,09,16,15,17,15.50
2006,09,16,15,18,15.40
2006,09,16,15,19,15.40
2006,09,16,15,20,15.40
2006,09,16,15,21,15.40
2006,09,16,15,22,15.50
2006,09,16,15,23,15.50
2006,09,16,15,24,15.60
2006,09,16,15,25,15.70
2006,09,16,15,26,15.80
2006,09,16,15,27,15.70
2006,09,16,15,28,15.60
2006,09,16,15,29,15.60
2006,09,16,15,30,15.50
2006,09,16,15,31,15.50
2006,09,16,15,32,15.50
2006,09,16,15,33,15.50
2006,09,16,15,34,15.50
2006,09,16,15,35,15.50
2006,09,16,15,36,15.50
2006,09,16,15,37,15.40
2006,09,16,15,38,15.30
2006,09,16,15,39,15.40
2006,09,16,15,40,15.50
2006,09,16,15,41,15.50
2006,09,16,15,42,15.60
2006,09,16,15,43,15.60
2006,09,16,15,44,15.70
2006,09,16,15,45,15.70
2006,09,16,15,46,15.70
2006,09,16,15,47,15.80
2006,09,16,15,48,15.70
2006,09,16,15,49,15.70
2006,09,16,15,50,15.60
2006,09,16,15,51,15.60
2006,09,16,15,52,15.60
2006,09,16,15,53,15.70
2006,09,16,15,54,15.60
2006,09,16,15,55,15.50
2006,09,16,15,56,15.60
2006,09,16,15,57,15.60
2006,09,16,15,58,15.70
2006,09,16,15,59,15.80
2006,09,16,16,00,15.90
2006,09,16,16,01,15.90
2006,09,16,16,02,15.90
2006,09,16,16,03,15.80
2006,09,16,16,04,15.80
2006,09,16,16,05,15.80
2006,09,16,16,06,15.80
2006,09,16,16,07,15.80
2006,09,16,16,08,15.80
2006,09,16,16,09,15.80
2006,09,16,16,10,15.80
2006,09,16,16,11,15.90
2006,09,16,16,12,15.90
2006,09,16,16,13,15.80
2006,09,16,16,14,15.80
2006,09,16,16,15,15.70
2006,09,16,16,16,15.70
2006,09,16,16,17,15.60
2006,09,16,16,18,15.50
2006,09,16,16,19,15.50
2006,09,16,16,20,15.50
2006,09,16,16,21,15.50
2006,09,16,16,22,15.50
2006,09,16,16,23,15.50
2006,09,16,16,24,15.60
2006,09,16,16,25,15.70
2006,09,16,16,26,15.80
2006,09,16,16,27,15.90
2006,09,16,16,28,16.10
2006,09,16,16,29,16.20
2006,09,16,16,30,16.20
2006,09,16,16,31,16.10
2006,09,16,16,32,16.10
2006,09,16,16,33,16.10
2006,09,16,16,34,16.10
2006,09,16,16,35,16.10
2006,09,16,16,36,16.20
2006,09,16,16,37,16.20
2006,09,16,16,38,16.30
2006,09,16,16,39,16.30
2006,09,16,16,40,16.40
2006,09,16,16,41,16.40
2006,09,16,16,42,16.40
2006,09,16,16,43,16.40
2006,09,16,16,44,16.30
2006,09,16,16,45,16.20
2006,09,16,16,46,16.10
2006,09,16,16,47,16.00
2006,09,16,16,48,15.90
2006,09,16,16,49,15.80
2006,09,16,16,50,15.80
2006,09,16,16,51,15.80
2006,09,16,16,52,15.80
2006,09,16,16,53,15.80
2006,09,16,16,54,15.80
2006,09,16,16,55,15.80
2006,09,16,16,56,15.70
2006,09,16,16,57,15.70
2006,09,16,16,58,15.70
2006,09,16,16,59,15.80
2006,09,16,17,00,15.80
2006,09,16,17,01,15.70
2006,09,16,17,02,15.70
2006,09,16,17,03,15.70
2006,09,16,17,04,15.70
2006,09,16,17,05,15.70
2006,09,16,17,06,15.70
2006,09,16,17,07,15.70
2006,09,16,17,08,15.70
2006,09,16,17,09,15.70
2006,09,16,17,10,15.70
2006,09,16,17,11,15.80
2006,09,16,17,12,15.80
2006,09,16,17,13,15.80
2006,09,16,17,14,15.80
2006,09,16,17,15,15.90
2006,09,16,17,16,15.90
2006,09,16,17,17,15.90
2006,09,16,17,18,15.90
2006,09,16,17,19,15.90
2006,09,16,17,20,15.90
2006,09,16,17,21,15.90
2006,09,16,17,22,15.90
2006,09,16,17,23,15.90
2006,09,16,17,24,15.90
2006,09,16,17,25,15.90
2006,09,16,17,26,16.00
2006,09,16,17,27,16.10
2006,09,16,17,28,16.10
2006,09,16,17,29,16.10
2006,09,16,17,30,16.10
2006,09,16,17,31,16.10
2006,09,16,17,32,16.10
2006,09,16,17,33,16.20
2006,09,16,17,34,16.30
2006,09,16,17,35,16.30
2006,09,16,17,36,16.40
2006,09,16,17,37,16.40
2006,09,16,17,38,16.40